SCP
0 0 0 0 0 0 0 0 0 0 0 0 0 0 0 0 0 0 0 0 0 0 0 0 0 0 0 0 0 0 0 0 0 0 0 0 0 0 0 0 0 0 0
0 0 0 0 0 0 0 0 0 0 0 0 0 0 0 0 0 0 0 0 0 0 0 0 0 0 0 0 0 0 0 0 0 0 0 0 0 0 0 0 0 0 0
0 0 0 0 0 0 0 0 0 0 0 0 0 0 0 0 0 0 0 0 0 0 0 0 0 0 0 0 0 0 0 0 0 0 0 0 0 0 0 0 0 0 0
0 0 0 0 0 0 0 0 0 0 0 0 0 0 0 0 0 0 0 0 0 0 0 0 0 0 0 0 0 0 0 0 0 0 0 0 0 0 0 0 0 0 0
0 0 0 0 0 0 0 0 0 0 0 0 0 0 0 0 0 0 0 0 0 0 0 0 0 0 0 0 0 0 0 0 0 0 0 0 0 0 0 0 0 0 0
0 0 0 0 0 0 0 0 0 0 0 0 0 0 0 0 0 0 0 0 0 0 0 0 0 0 0 0 0 0 0 0 0 0 0 0 0 0 0 0 0 0 0
0 0 0 0 0 0 0 0 0 0 0 0 0 0 0 0 0 0 0 0 0 0 0 0 0 0 0 0 0 0 0 0 0 0 0 0 0 0 0 0 0 0 0
0 0 0 0 0 0 0 0 0 0 0 0 0 0 0 0 0 0 0 0 0 0 0 0 0 0 0 0 0 0 0 0 0 0 0 0 0 0 0 0 0 0 0
0 0 0 0 0 0 0 0 0 0 0 0 0 0 0 0 0 0 0 0 0 0 0 0 0 0 0 0 0 0 0 0 0 0 0 0 0 0 0 0 0 0 0
0 0 0 0 0 0 0 0 0 0 0 0 0 0 0 0 0 0 0 0 0 0 0 0 0 0 0 0 0 0 0 0 0 0 0 0 0 0 0 0 0 0 0
0 0 0 0 0 0 0 0 0 0 0 0 0 0 0 0 0 0 0 0 0 0 0 0 0 0 0 0 0 0 0 0 0 0 0 0 0 0 0 0 0 0 0
0 0 0 0 0 0 0 0 0 0 0 0 0 0 0 0 0 0 0 0 0 0 0 0 0 0 0 0 0 0 0 0 0 0 0 0 0 0 0 0 0 0 0
0 0 0 0 0 0 0 0 0 0 0 0 0 0 0 0 0 0 0 0 0 0 0 0 0 0 0 0 0 0 0 0 0 0 0 0 0 0 0 0 0 0 0
0 0 0 0 0 0 0 0 0 0 0 0 0 0 0 0 0 0 0 0 0 0 0 0 0 0 0 0 0 0 0 0 0 0 0 0 0 0 0 0 0 0 0
0 0 0 0 0 0 0 0 0 0 0 0 0 0 0 0 0 0 0 0 0 0 0 0 0 0 0 0 0 0 0 0 0 0 0 0 0 0 0 0 0 0 0
0 0 0 0 0 0 0 0 0 0 0 0 0 0 0 0 0 0 0 0 0 0 0 0 0 0 0 0 0 0 0 0 0 0 0 0 0 0 0 0 0 0 0
0 0 0 0 0 0 0 0 0 0 1 0 0 0 0 0 0 0 0 0 0 0 0 0 0 0 0 0 0 0 0 0 0 0 0 0 0 0 0 0 0 0 0
0 0 0 0 0 0 0 0 0 0 1 0 0 0 0 0 0 0 0 0 0 0 0 0 0 0 0 0 0 0 0 0 0 0 0 0 0 0 0 0 0 0 0
0 0 0 0 0 0 0 0 0 0 0 0 0 0 0 0 0 0 0 0 0 0 0 0 0 0 0 0 0 0 0 0 0 0 0 0 0 0 0 0 0 0 0
0 0 0 0 0 0 0 0 0 0 0 0 0 0 0 0 0 0 0 0 0 0 0 0 0 0 0 0 0 0 0 0 0 0 0 0 0 0 0 0 0 0 0
0 0 0 0 0 0 0 0 0 0 0 0 0 0 0 0 0 0 0 0 0 0 0 0 0 0 0 0 0 0 0 0 0 0 0 0 0 0 0 0 0 0 0
0 0 0 0 0 0 0 0 0 0 0 0 0 0 0 0 0 0 0 0 0 0 0 0 0 0 0 0 0 0 0 0 0 0 0 0 0 0 0 0 0 0 0
0 0 0 0 0 0 0 0 0 0 0 0 0 0 0 0 0 0 0 0 0 0 0 0 0 0 0 0 0 0 0 0 0 0 0 0 0 0 0 0 0 0 0
0 0 0 0 0 0 0 0 0 0 0 0 0 0 0 0 0 0 0 0 0 0 0 0 0 0 0 0 0 0 0 0 0 0 0 0 0 0 0 0 0 0 0
0 0 0 0 0 0 0 0 0 0 0 0 0 0 0 0 0 0 0 0 0 0 0 0 0 0 0 0 0 0 0 0 0 0 0 0 0 0 0 0 0 0 0
0 0 0 0 0 0 0 0 0 0 0 0 0 0 0 0 0 0 0 0 0 0 0 0 0 0 0 0 0 0 0 0 0 0 0 0 0 0 0 0 0 0 0
Wind_Speed
7 6 7 7 6 6 6 6 5 4 4 2 2 2 1 1 0 1 1 1 1 1 1 0 0 0 1 1 1 1 1 1 1 1 1 2 1 1 1 1 1 2 2
5 6 7 7 8 8 7 6 6 6 5 3 3 2 2 1 1 0 0 1 1 1 1 1 1 1 1 1 1 1 1 0 1 2 1 1 2 2 1 1 1 2 1
10 8 9 9 8 8 9 8 7 6 5 4 3 2 2 1 1 1 0 1 1 1 1 1 1 1 1 1 1 1 2 1 0 1 2 2 2 2 2 1 1 1 1
9 9 9 9 9 9 8 7 7 6 5 5 4 4 3 2 2 1 1 1 0 1 1 1 1 1 1 1 1 1 2 2 1 0 0 1 2 1 1 2 2 2 1
11 11 11 11 9 8 7 7 6 6 5 5 5 5 3 2 1 1 1 0 0 0 1 1 1 1 1 1 1 1 1 2 2 2 1 1 1 1 1 2 2 2 1
10 9 8 7 7 7 6 6 6 5 5 5 5 5 5 4 3 1 1 1 0 0 1 1 1 1 1 1 1 1 1 2 2 2 2 2 2 2 2 2 2 2 2
9 9 9 8 8 8 8 7 7 6 5 5 5 5 5 5 4 3 3 2 1 1 2 1 1 1 1 1 1 1 1 1 2 3 2 2 2 2 2 2 2 2 2
8 9 10 10 9 9 9 8 8 6 6 6 5 4 4 3 3 3 3 3 2 2 2 2 2 1 1 1 1 1 2 1 2 3 3 2 2 2 2 2 2 1 2
6 8 8 8 9 9 9 9 8 7 6 6 5 4 4 4 3 3 2 2 2 1 1 1 1 1 1 1 1 1 2 2 2 2 3 2 2 2 2 2 2 3 2
4 5 6 7 8 8 8 8 8 8 6 6 5 5 4 4 3 3 2 2 2 1 1 1 1 0 0 1 1 1 1 1 1 1 2 2 2 2 2 2 2 2 3
5 5 5 6 6 6 6 6 6 6 6 6 5 5 4 4 3 3 3 3 2 2 2 2 1 1 1 1 1 1 1 1 1 1 2 3 2 2 2 2 2 2 3
4 5 5 6 6 7 6 7 6 6 6 6 5 5 4 4 4 4 3 3 3 3 3 2 2 1 1 1 1 1 1 1 2 2 2 3 2 2 2 2 3 3 3
3 4 5 5 6 6 6 7 7 7 6 5 5 4 4 4 4 4 4 3 3 3 2 2 2 2 1 1 2 2 2 2 2 2 2 3 2 3 2 2 3 3 3
3 4 4 4 4 5 6 6 6 5 5 5 5 5 5 5 5 4 4 4 4 4 3 3 3 2 2 2 2 2 2 2 2 2 2 3 3 3 3 3 3 2 2
3 4 4 4 4 4 4 5 5 4 5 5 5 5 4 4 4 4 4 3 4 4 3 2 2 2 2 2 2 2 2 2 2 2 3 3 3 3 3 3 2 2 2
4 4 4 4 5 5 5 5 5 5 5 5 4 3 3 3 3 3 3 3 3 3 3 2 2 3 2 2 3 3 3 2 2 3 3 3 3 3 3 3 3 3 3
4 5 5 5 5 5 5 5 5 5 5 4 3 3 3 3 3 3 3 3 3 3 3 3 3 3 3 3 3 3 2 2 2 3 2 2 2 2 2 3 3 3 3
4 4 4 4 4 4 4 4 5 5 5 4 3 3 3 3 2 3 3 3 3 3 3 3 3 3 3 2 2 1 1 2 2 3 2 2 2 2 2 2 2 3 3
5 5 5 4 4 5 5 4 5 5 5 4 4 4 4 4 3 3 4 3 3 2 2 2 2 2 3 3 2 2 1 1 2 2 2 2 2 3 2 1 2 3 3
2 3 3 3 4 5 6 6 5 5 5 5 4 4 4 5 5 4 3 2 3 3 2 2 2 3 3 3 2 2 1 1 2 2 2 2 2 3 2 1 2 3 4
2 2 3 3 4 5 6 6 5 6 5 4 3 3 4 4 3 2 2 2 2 2 2 2 2 2 3 3 3 3 2 2 2 2 2 2 3 4 3 2 3 4 4
2 3 3 2 2 5 6 5 5 5 3 4 3 3 3 3 3 3 2 2 2 2 1 1 2 2 2 3 3 3 2 2 2 2 2 2 4 3 2 2 3 4 2
2 2 3 3 1 2 5 5 4 3 4 4 3 3 3 2 2 3 3 2 2 2 2 1 2 2 1 2 3 3 3 2 1 2 3 4 4 2 2 2 2 1 1
2 2 3 3 1 1 1 2 2 4 5 4 3 3 3 2 2 2 2 2 2 2 2 2 2 2 1 1 1 1 1 1 1 1 2 2 1 1 1 2 1 1 1
2 3 3 3 2 1 1 1 2 4 4 4 3 3 2 2 2 2 1 2 2 3 3 3 2 2 2 3 2 2 1 1 2 1 0 1 1 1 1 2 1 1 1
3 2 2 3 2 1 1 1 3 4 5 3 3 2 2 2 2 2 1 2 1 0 1 2 2 2 3 2 2 2 3 3 3 2 1 1 1 1 1 2 2 2 2
Wind_Direction
210 189 183 176 169 169 172 177 174 172 155 146 151 155 184 197 186 196 181 185 185 161 160 188 194 149 154 183 175 147 108 51 87 81 23 350 345 269 264 262 259 257 245
190 182 178 177 180 178 180 182 182 175 171 170 164 161 152 161 161 81 75 178 190 186 182 174 187 174 149 107 122 135 131 115 117 124 96 360 338 333 322 284 255 265 246
193 190 187 188 184 186 189 191 187 178 174 163 135 111 81 59 61 66 89 247 202 187 175 164 150 146 152 177 190 171 163 173 169 123 139 150 238 304 325 309 295 275 242
191 192 190 189 192 195 188 184 179 176 171 161 157 156 162 177 197 191 204 250 191 170 171 157 147 145 153 179 215 176 174 153 170 187 145 154 161 167 303 313 308 293 253
192 192 193 192 189 185 181 177 171 173 171 165 165 163 164 173 164 145 155 226 356 172 198 169 158 160 166 194 199 148 165 162 168 173 163 145 118 156 180 275 303 311 279
193 192 190 181 175 169 172 169 169 179 173 169 168 168 169 168 157 160 178 236 288 273 249 193 184 193 187 204 208 191 182 183 170 171 167 166 171 193 186 223 257 277 287
187 183 180 178 176 173 174 171 170 178 177 172 173 178 178 176 179 184 192 197 214 236 248 223 207 206 214 213 190 186 213 203 188 190 198 200 208 188 181 197 230 256 284
184 185 187 183 181 180 175 170 173 175 170 173 180 178 174 176 187 187 185 193 205 222 228 211 205 209 213 223 190 196 223 210 214 211 202 209 225 204 191 188 188 238 277
185 186 182 177 176 177 176 173 170 171 174 179 179 177 178 179 187 180 177 188 202 203 189 192 194 211 207 218 205 223 234 216 223 230 218 220 229 209 209 197 190 191 239
162 169 173 174 174 175 172 167 168 176 179 179 183 184 184 185 180 165 174 188 196 185 169 194 191 202 197 205 202 240 247 224 249 240 229 235 237 221 209 205 204 200 208
165 165 168 168 162 160 163 165 169 168 175 183 182 184 183 182 175 180 187 185 181 177 183 190 188 197 210 242 219 242 234 229 268 277 250 254 243 231 227 213 208 211 204
160 157 152 147 153 160 164 168 170 175 182 181 177 180 181 178 184 194 195 182 182 188 193 189 181 199 221 235 226 247 252 235 255 268 268 274 264 252 248 228 223 220 213
135 133 137 148 157 164 169 173 175 179 177 173 172 177 185 189 198 202 197 189 188 192 193 184 189 201 212 230 238 231 238 238 249 256 259 268 259 260 256 245 241 232 221
129 129 143 156 165 168 172 174 178 176 167 166 172 182 194 199 204 202 197 194 194 195 200 200 202 204 205 217 231 238 244 251 262 261 258 262 252 250 252 249 243 231 217
146 150 156 165 167 164 170 174 175 170 167 168 180 194 194 192 193 195 194 193 193 196 196 192 198 205 205 219 227 240 246 252 268 276 273 272 268 257 249 252 241 226 217
176 172 168 167 174 173 177 175 175 174 165 174 193 195 183 185 194 198 192 187 189 182 176 188 202 213 223 239 237 232 243 245 251 270 283 286 282 289 277 266 243 218 212
189 188 185 187 189 186 176 181 180 167 166 180 189 186 182 188 196 188 175 179 178 176 189 199 203 223 234 231 239 235 225 237 248 257 271 293 303 295 291 285 271 252 234
196 203 199 195 192 177 164 166 158 160 167 177 185 183 180 187 181 170 185 188 181 189 201 207 209 222 251 244 241 233 218 239 252 252 249 258 283 287 282 278 286 274 256
199 202 196 188 176 164 154 147 156 159 164 178 188 189 186 186 184 189 198 191 184 198 209 210 211 221 255 248 217 169 197 237 266 268 266 263 273 283 285 266 284 296 293
184 191 175 159 163 161 152 146 165 168 184 194 196 190 186 188 192 197 193 185 185 201 203 218 227 225 244 247 217 179 185 225 266 278 273 262 281 293 273 251 261 282 293
168 159 144 152 171 157 150 156 171 192 198 186 178 183 190 192 187 177 177 175 181 188 201 221 238 232 239 243 229 201 195 218 254 272 281 291 295 283 267 252 245 259 276
116 123 116 124 152 152 153 167 190 196 171 165 170 178 182 185 168 159 168 165 167 178 204 231 261 257 244 232 233 224 217 210 221 258 283 289 293 280 269 269 276 264 265
115 104 114 105 96 149 161 175 197 165 151 152 167 173 167 164 159 160 161 156 160 175 201 224 246 264 260 238 226 221 220 228 228 257 279 289 297 295 286 299 307 271 251
126 116 116 111 101 107 138 180 175 152 150 158 169 165 159 156 147 150 161 167 175 183 197 218 235 251 259 251 224 215 213 230 249 273 291 296 286 313 325 328 326 306 284
137 141 148 152 172 139 118 156 165 153 157 163 166 163 157 152 145 141 161 185 192 194 199 218 225 230 250 257 241 221 227 222 220 208 341 8 7 7 353 334 320 311 305
151 149 160 159 165 134 159 196 169 157 154 159 169 165 157 157 154 149 89 38 60 50 218 217 213 234 234 243 244 244 238 219 185 153 194 236 256 268 279 285 295 296 288